TITAN 3C TRANSTAGE DEB, 43456

Orbit data source: Space-Track

TITAN 3C TRANSTAGE DEB, 43456 is space debris in GEO originally from a launch on Sun, 09 Feb 1969 UTC launched from the Air Force Eastern Test Range (AFETR). Debris objects in space refer to the collection of defunct objects orbiting the Earth. Examples of debris include non-operational satellites, rocket bodies, and fragments generated from explosions, collisions, or faulty payload assembly.

Loading next visibility...
Identifier
43456, 1969-013P
Orbit
GEO
Last TLE update
4 days ago
Origin
Manufacturer
Martin Marietta
Mission
Spacecraft
Bus & Motor
Unknown
Mass
Unknown
Launch date (UTC)
1969-02-09 (56 years ago)
Launch vehicle
Unknown
Launch site
Air Force Eastern Test Range (AFETR)
Object type
Payload
Rocket body
Debris
Shape & HBR
Unknown
Radar Cross Section
RCS unknown

Expand to show TLE details & history

TLE from 4 days ago
0 TITAN 3C TRANSTAGE DEB
1 43456U 69013P   25129.79539524 -.00000233  00000-0  00000+0 0  9992
2 43456   1.1923  30.1406 0946308  53.4123 314.0560  1.02747570 26923
Epoch: 2025-05-09T19:05Z
Definitive object data (Epoch: 2025-05-09T19:05:22.148Z)
Latitude
-0.00002°
Longitude
-125.01102°
Altitude
32,570.351 km
Speed
3.295 km/s
True Right ascension
01h 56m 42s
True Declination
0° 00' 00"
Sunlit
Object was in daylight at TLE epoch
Visualization TLE readout
Latitude
-0.93802°
Longitude
106.6191°
Altitude
39,036.631 km
Speed
2.819 km/s
Apparent Right ascension
17h 32m 49s
Apparent Declination
-6° 43' 12"
Sunlit
Object is in daylight
Visualization observer readout
Local Sidereal Time
16:01:29
Azimuth
150.349° SSE
Elevation
38.824°
Doppler factor
1
Orbital elements
Apogee altitude
39,033.448 km
Perigee altitude
31,181.787 km
Semi-major axis
41,485.754 km
Eccentricity
0.0946308
Inclination
1.1923°
RAAN
30.1406°
Arg. of periapsis
53.4123°
True anomaly
305.59836°
Mean anomaly
314.056°
Eccentric anomaly
309.89624°
Mean motion
0.25686 °/min
BSTAR
Unknown
Orbital period
1401.55 mins
Loading historical data...
43456 neighbors
Loading maneuver chart data...
Loading SW <> Apogee altitude chart data...

TITAN 3C TRANSTAGE DEB Visibility forecast

Observer location: undefined°, undefined°

Span
Click to sort rows by Start time (UTC) header in descending order
Start Az.
Max El. time (UTC)
Max El. Az.
Max El.
End time (UTC)
End Az.
1440 mins2025-05-13 07:36:41.410Z150.359° SSE2025-05-13 14:03:41.410Z162.749° S33.463°2025-05-14 07:36:41.410Z141.4° SSE
|